Location: Shepherdstown, WV
(39.4326°N, 77.8042°W)
Time: 18:08:55
(UTC-04:00)

X-37B - Pass Details

Date: 23 June 2021
Orbit: 383 x 392 km, 45.0° (Epoch: 01 July)

Event Time Altitude Azimuth Distance (km) Brightness Sun altitude
Exits shadow 04:32:09 19° 248° (WSW) 978 2.0 -11.9°
Maximum altitude 04:33:13 23° 217° (SW) 860 1.7 -11.8°
Drops below altitude 10° 04:35:49 10° 161° (SSE) 1,399 3.2 -11.4°
Sets 04:38:07 0° 146° (SSE) 2,251 4.4 -11.1°
